Overview Statistics Trail Chart Weather Telemetry Raw packets
 

This is the latest recevied weather packets stored in our database for station/object IONIA-WX. If no packets are shown the sender has not sent any weather packets the latest 10 day(s).

<< 23 24 25 26 27 28 29 >>
Time Temp. Humidity Pressure Rain* Wind** Luminosity Snow
1788040817 24.44° C 54% 988.9 hPa 0 mm - - -
1788039917 24.44° C 56% 989.4 hPa 0 mm - - -
1788039019 25° C 56% 989.4 hPa 0 mm - - -
1788038117 25° C 56% 989.4 hPa 0 mm - - -
1788037221 25° C 56% 989.4 hPa 0 mm - - -
1788036316 25.56° C 59% 990.1 hPa 0 mm - - -
1788035419 25° C 54% 989.7 hPa 0 mm - - -
1788034516 25.56° C 54% 989.7 hPa 0 mm - - -
1788033618 25.56° C 54% 989.7 hPa 0 mm - - -
1788032717 25° C 49% 989.8 hPa 0 mm - - -
1788031822 25.56° C 49% 989.8 hPa 0 mm - - -
1788030918 26.11° C 49% 989.9 hPa 0 mm - - -
1788030020 26.11° C 49% 989.9 hPa 0 mm - - -
1788029117 26.11° C 48% 990.9 hPa 0 mm - - -
1788028217 26.11° C 48% 990.9 hPa 0 mm - - -
1788027328 26.11° C 48% 990.9 hPa 0 mm - - -
1788026417 26.11° C 48% 990.9 hPa 0 mm - - -
1788025517 26.11° C 52% 991.5 hPa 0 mm - - -
1788024617 26.11° C 52% 990.9 hPa 0 mm - - -
1788023717 25.56° C 52% 990.9 hPa 0 mm - - -
1788022820 25.56° C 52% 990.9 hPa 0 mm - - -
1788021917 25.56° C 57% 991.2 hPa 0 mm - - -
1788021017 25.56° C 52% 990.6 hPa 0 mm - - -
1788020117 25.56° C 52% 990.6 hPa 0 mm - - -
1788019218 25° C 52% 990.6 hPa 0 mm - - -

* Rain latest hour (hover to see other rain measurements)
** Current wind speed in m/s (hover to see current wind gust speed)